Location: Unspecified
(0.0000°N, 0.0000°E)
Time: 09:47:44
(UTC+00:00)

Vanguard 1 Rocket - Pass Details

Date: 16 December 2017
Orbit: 653 x 4224 km, 34.3° (Epoch: 24 June)

Event Time Altitude Azimuth Distance (km) Brightness Sun altitude
Rises 01:21:53 0° 299° (WNW) 8,149 - -58.6°
Reaches altitude 10° 01:27:21 10° 297° (WNW) 7,310 - -57.7°
Maximum altitude 01:53:21 64° 220° (SW) 4,101 - -53.1°
Exits shadow 01:53:32 64° 218° (SW) 4,093 10.3 -53.1°
Drops below altitude 10° 02:11:43 10° 140° (SE) 5,407 11.8 -49.5°
Sets 02:15:07 0° 136° (SE) 6,035 12.3 -48.9°
